| time (UTC) | temp F | wind direction | speed MPH | gust MPH | rain 1hr in | rain 24hr in | rain mn in | humidity % | barometer mb |
| 20260905223407 | 98 | 197 | 7.0 | 15.0 | 0.00 | 0.00 | 0.00 | 43 | 1008.5 |
| 20260905222407 | 98 | 198 | 7.0 | 15.0 | 0.00 | 0.00 | 0.00 | 43 | 1008.5 |
| 20260905221908 | 98 | 184 | 10.0 | 15.0 | 0.00 | 0.00 | 0.00 | 42 | 1008.5 |
| 20260905221408 | 99 | 171 | 7.0 | 12.0 | 0.00 | 0.00 | 0.00 | 42 | 1008.5 |
| 20260905220909 | 99 | 206 | 5.0 | 12.0 | 0.00 | 0.00 | 0.00 | 42 | 1008.6 |
| 20260905220407 | 99 | 220 | 6.0 | 13.0 | 0.00 | 0.00 | 0.00 | 43 | 1008.7 |
| 20260905215407 | 99 | 166 | 6.0 | 12.0 | 0.00 | 0.00 | 0.00 | 42 | 1008.7 |
| 20260905214907 | 98 | 93 | 3.0 | 14.0 | 0.00 | 0.00 | 0.00 | 42 | 1008.8 |
| 20260905214408 | 98 | 146 | 6.0 | 14.0 | 0.00 | 0.00 | 0.00 | 42 | 1008.8 |
| 20260905213908 | 98 | 137 | 5.0 | 14.0 | 0.00 | 0.00 | 0.00 | 42 | 1008.9 |
| 20260905213407 | 98 | 195 | 6.0 | 15.0 | 0.00 | 0.00 | 0.00 | 43 | 1008.9 |
| 20260905212907 | 98 | 202 | 8.0 | 15.0 | 0.00 | 0.00 | 0.00 | 42 | 1008.9 |
| 20260905211407 | 98 | 150 | 5.0 | 16.0 | 0.00 | 0.00 | 0.00 | 43 | 1009.1 |
| 20260905210408 | 99 | 209 | 7.0 | 12.0 | 0.00 | 0.00 | 0.00 | 42 | 1009.2 |
| 20260905205408 | 98 | 229 | 7.0 | 13.0 | 0.00 | 0.00 | 0.00 | 43 | 1009.4 |
| 20260905204910 | 98 | 199 | 8.0 | 13.0 | 0.00 | 0.00 | 0.00 | 43 | 1009.6 |
| 20260905203908 | 98 | 160 | 7.0 | 13.0 | 0.00 | 0.00 | 0.00 | 43 | 1009.6 |
| 20260905203407 | 99 | 161 | 5.0 | 15.0 | 0.00 | 0.00 | 0.00 | 43 | 1009.7 |
| 20260905202908 | 99 | 217 | 9.0 | 15.0 | 0.00 | 0.00 | 0.00 | 43 | 1009.7 |
| 20260905201908 | 98 | 175 | 4.0 | 9.0 | 0.00 | 0.00 | 0.00 | 44 | 1010.0 |
| 20260905201408 | 98 | 218 | 5.0 | 12.0 | 0.00 | 0.00 | 0.00 | 44 | 1010.1 |
| 20260905200908 | 98 | 156 | 7.0 | 15.0 | 0.00 | 0.00 | 0.00 | 45 | 1010.2 |
| 20260905200408 | 97 | 260 | 7.0 | 15.0 | 0.00 | 0.00 | 0.00 | 44 | 1010.2 |
| 20260905195908 | 97 | 236 | 5.0 | 12.0 | 0.00 | 0.00 | 0.00 | 44 | 1010.4 |
| 20260905195408 | 97 | 204 | 6.0 | 13.0 | 0.00 | 0.00 | 0.00 | 44 | 1010.4 |
| 20260905194908 | 97 | 178 | 7.0 | 13.0 | 0.00 | 0.00 | 0.00 | 43 | 1010.5 |
| 20260905194408 | 97 | 151 | 6.0 | 16.0 | 0.00 | 0.00 | 0.00 | 46 | 1010.5 |
| 20260905192908 | 96 | 207 | 5.0 | 16.0 | 0.00 | 0.00 | 0.00 | 46 | 1010.8 |
| 20260905192408 | 96 | 206 | 1.0 | 14.0 | 0.00 | 0.00 | 0.00 | 47 | 1010.8 |
| 20260905191909 | 96 | 199 | 5.0 | 16.0 | 0.00 | 0.00 | 0.00 | 47 | 1010.9 |
| 20260905191408 | 96 | 171 | 10.0 | 16.0 | 0.00 | 0.00 | 0.00 | 46 | 1011.1 |
| 20260905190408 | 96 | 186 | 9.0 | 17.0 | 0.00 | 0.00 | 0.00 | 46 | 1011.4 |
| 20260905185909 | 96 | 187 | 8.0 | 14.0 | 0.00 | 0.00 | 0.00 | 46 | 1011.4 |
| 20260905185409 | 96 | 145 | 8.0 | 14.0 | 0.00 | 0.00 | 0.00 | 46 | 1011.5 |
| 20260905184909 | 96 | 187 | 7.0 | 14.0 | 0.00 | 0.00 | 0.00 | 46 | 1011.5 |
| 20260905183409 | 95 | 118 | 9.0 | 15.0 | 0.00 | 0.00 | 0.00 | 47 | 1011.6 |
| 20260905182908 | 95 | 202 | 9.0 | 15.0 | 0.00 | 0.00 | 0.00 | 47 | 1011.7 |
| 20260905182408 | 95 | 156 | 6.0 | 15.0 | 0.00 | 0.00 | 0.00 | 47 | 1011.7 |
| 20260905181909 | 95 | 201 | 9.0 | 17.0 | 0.00 | 0.00 | 0.00 | 48 | 1011.8 |
| 20260905181409 | 95 | 194 | 8.0 | 17.0 | 0.00 | 0.00 | 0.00 | 48 | 1011.8 |
| 20260905180409 | 95 | 110 | 7.0 | 13.0 | 0.00 | 0.00 | 0.00 | 48 | 1012.1 |
| 20260905175909 | 95 | 174 | 7.0 | 14.0 | 0.00 | 0.00 | 0.00 | 49 | 1012.1 |
| 20260905175408 | 95 | 191 | 5.0 | 14.0 | 0.00 | 0.00 | 0.00 | 48 | 1012.2 |
| 20260905174909 | 95 | 172 | 6.0 | 14.0 | 0.00 | 0.00 | 0.00 | 49 | 1012.2 |
| 20260905173909 | 94 | 149 | 3.0 | 16.0 | 0.00 | 0.00 | 0.00 | 48 | 1012.4 |
| 20260905173409 | 94 | 185 | 9.0 | 16.0 | 0.00 | 0.00 | 0.00 | 47 | 1012.5 |
| 20260905172909 | 95 | 150 | 7.0 | 13.0 | 0.00 | 0.00 | 0.00 | 46 | 1012.5 |
| 20260905172409 | 96 | 109 | 4.0 | 12.0 | 0.00 | 0.00 | 0.00 | 47 | 1012.4 |
| 20260905171409 | 95 | 103 | 7.0 | 12.0 | 0.00 | 0.00 | 0.00 | 48 | 1012.6 |
| 20260905170909 | 95 | 166 | 7.0 | 12.0 | 0.00 | 0.00 | 0.00 | 50 | 1012.5 |
| 20260905170409 | 94 | 238 | 3.0 | 10.0 | 0.00 | 0.00 | 0.00 | 51 | 1012.6 |
| 20260905165910 | 95 | 151 | 5.0 | 10.0 | 0.00 | 0.00 | 0.00 | 50 | 1012.5 |
| 20260905165409 | 95 | 150 | 5.0 | 9.0 | 0.00 | 0.00 | 0.00 | 51 | 1012.5 |
| 20260905164909 | 94 | 8 | 2.0 | 9.0 | 0.00 | 0.00 | 0.00 | 52 | 1012.7 |
| 20260905164410 | 93 | 106 | 3.0 | 12.0 | 0.00 | 0.00 | 0.00 | 52 | 1012.7 |
| 20260905163909 | 94 | 150 | 7.0 | 12.0 | 0.00 | 0.00 | 0.00 | 51 | 1012.7 |
| 20260905163409 | 95 | 177 | 3.0 | 6.0 | 0.00 | 0.00 | 0.00 | 51 | 1012.6 |
| 20260905162909 | 95 | 94 | 2.0 | 7.0 | 0.00 | 0.00 | 0.00 | 51 | 1012.8 |
| 20260905162409 | 94 | 88 | 4.0 | 12.0 | 0.00 | 0.00 | 0.00 | 52 | 1012.7 |
| 20260905161910 | 93 | 154 | 1.0 | 12.0 | 0.00 | 0.00 | 0.00 | 52 | 1012.7 |
| 20260905161409 | 93 | 161 | 5.0 | 12.0 | 0.00 | 0.00 | 0.00 | 53 | 1012.7 |
| 20260905160910 | 93 | 179 | 3.0 | 7.0 | 0.00 | 0.00 | 0.00 | 54 | 1012.7 |
| 20260905160410 | 93 | 215 | 3.0 | 7.0 | 0.00 | 0.00 | 0.00 | 55 | 1012.7 |
| 20260905155910 | 92 | 237 | 5.0 | 8.0 | 0.00 | 0.00 | 0.00 | 57 | 1012.7 |
| 20260905154410 | 91 | 271 | 2.0 | 6.0 | 0.00 | 0.00 | 0.00 | 60 | 1012.8 |
| 20260905153912 | 90 | 159 | 3.0 | 7.0 | 0.00 | 0.00 | 0.00 | 61 | 1012.8 |
| 20260905153410 | 90 | 148 | 4.0 | 7.0 | 0.00 | 0.00 | 0.00 | 60 | 1012.8 |
| 20260905152910 | 90 | 251 | 2.0 | 8.0 | 0.00 | 0.00 | 0.00 | 62 | 1012.8 |
| 20260905151910 | 89 | 233 | 4.0 | 8.0 | 0.00 | 0.00 | 0.00 | 63 | 1012.8 |
| 20260905150910 | 89 | 215 | 3.0 | 9.0 | 0.00 | 0.00 | 0.00 | 64 | 1012.7 |
| 20260905150410 | 88 | 199 | 4.0 | 9.0 | 0.00 | 0.00 | 0.00 | 65 | 1012.7 |
| 20260905145910 | 88 | 206 | 4.0 | 8.0 | 0.00 | 0.00 | 0.00 | 66 | 1012.7 |
| 20260905145410 | 87 | 129 | 2.0 | 10.0 | 0.00 | 0.00 | 0.00 | 67 | 1012.7 |
| 20260905144910 | 87 | 211 | 4.0 | 10.0 | 0.00 | 0.00 | 0.00 | 68 | 1012.8 |
| 20260905144410 | 86 | 186 | 5.0 | 9.0 | 0.00 | 0.00 | 0.00 | 68 | 1012.7 |
| 20260905143910 | 86 | 212 | 5.0 | 9.0 | 0.00 | 0.00 | 0.00 | 69 | 1012.7 |
| 20260905142410 | 85 | 184 | 4.0 | 7.0 | 0.00 | 0.00 | 0.00 | 71 | 1012.8 |
| 20260905141911 | 85 | 218 | 3.0 | 10.0 | 0.00 | 0.00 | 0.00 | 71 | 1012.7 |
| 20260905140910 | 85 | 228 | 5.0 | 10.0 | 0.00 | 0.00 | 0.00 | 72 | 1012.7 |
| 20260905135910 | 84 | 212 | 3.0 | 7.0 | 0.00 | 0.00 | 0.00 | 73 | 1012.6 |
| 20260905135411 | 84 | 231 | 2.0 | 6.0 | 0.00 | 0.00 | 0.00 | 74 | 1012.7 |
| 20260905134911 | 83 | 208 | 3.0 | 5.0 | 0.00 | 0.00 | 0.00 | 74 | 1012.7 |
| 20260905134410 | 83 | 238 | 3.0 | 5.0 | 0.00 | 0.00 | 0.00 | 75 | 1012.7 |
| 20260905133912 | 83 | 184 | 2.0 | 3.0 | 0.00 | 0.00 | 0.00 | 76 | 1012.6 |
| 20260905133411 | 83 | 151 | 1.0 | 3.0 | 0.00 | 0.00 | 0.00 | 76 | 1012.5 |
| 20260905132911 | 83 | 188 | 0.0 | 3.0 | 0.00 | 0.00 | 0.00 | 76 | 1012.5 |
| 20260905132411 | 82 | 150 | 0.0 | 2.0 | 0.00 | 0.00 | 0.00 | 76 | 1012.5 |
| 20260905131410 | 81 | 40 | 0.0 | 1.0 | 0.00 | 0.00 | 0.00 | 79 | 1012.5 |
| 20260905130411 | 80 | 40 | 0.0 | 1.0 | 0.00 | 0.00 | 0.00 | 81 | 1012.5 |
| 20260905125911 | 78 | 40 | 0.0 | 0.0 | 0.00 | 0.00 | 0.00 | 81 | 1012.4 |
| 20260905125412 | 78 | 40 | 0.0 | 2.0 | 0.00 | 0.00 | 0.00 | 82 | 1012.4 |
| 20260905124911 | 78 | 41 | 0.0 | 2.0 | 0.00 | 0.00 | 0.00 | 83 | 1012.3 |
| 20260905122911 | 75 | 144 | 0.0 | 2.0 | 0.00 | 0.00 | 0.00 | 84 | 1012.1 |
| 20260905122411 | 75 | 144 | 1.0 | 2.0 | 0.00 | 0.00 | 0.00 | 84 | 1012.1 |
| 20260905121911 | 76 | 144 | 0.0 | 1.0 | 0.00 | 0.00 | 0.00 | 84 | 1012.0 |
| 20260905121411 | 76 | 144 | 0.0 | 1.0 | 0.00 | 0.00 | 0.00 | 84 | 1012.0 |
| 20260905120911 | 76 | 144 | 0.0 | 1.0 | 0.00 | 0.00 | 0.00 | 84 | 1011.9 |
| 20260905120411 | 76 | 144 | 0.0 | 1.0 | 0.00 | 0.00 | 0.00 | 84 | 1011.7 |
| 20260905115911 | 76 | 144 | 0.0 | 3.0 | 0.00 | 0.00 | 0.00 | 84 | 1011.7 |
| 20260905115411 | 76 | 144 | 1.0 | 3.0 | 0.00 | 0.00 | 0.00 | 84 | 1011.6 |
| 20260905114911 | 76 | 144 | 2.0 | 3.0 | 0.00 | 0.00 | 0.00 | 83 | 1011.6 |
| 20260905114411 | 76 | 144 | 2.0 | 3.0 | 0.00 | 0.00 | 0.00 | 83 | 1011.5 |
| 20260905113912 | 76 | 102 | 2.0 | 3.0 | 0.00 | 0.00 | 0.00 | 83 | 1011.5 |
| 20260905113411 | 76 | 140 | 0.0 | 3.0 | 0.00 | 0.00 | 0.00 | 82 | 1011.5 |
| 20260905111911 | 77 | 126 | 0.0 | 0.0 | 0.00 | 0.00 | 0.00 | 82 | 1011.6 |
| 20260905111412 | 77 | 126 | 0.0 | 1.0 | 0.00 | 0.00 | 0.00 | 82 | 1011.6 |
| 20260905105912 | 77 | 141 | 3.0 | 6.0 | 0.00 | 0.00 | 0.00 | 83 | 1011.6 |
| 20260905105411 | 76 | 127 | 3.0 | 6.0 | 0.00 | 0.00 | 0.00 | 83 | 1011.6 |
| 20260905104911 | 76 | 155 | 3.0 | 3.0 | 0.00 | 0.00 | 0.00 | 83 | 1011.5 |
| 20260905104411 | 76 | 126 | 3.0 | 5.0 | 0.00 | 0.00 | 0.00 | 83 | 1011.5 |
| 20260905103912 | 76 | 160 | 3.0 | 5.0 | 0.00 | 0.00 | 0.00 | 82 | 1011.5 |
| 20260905102912 | 76 | 144 | 0.0 | 0.0 | 0.00 | 0.00 | 0.00 | 82 | 1011.6 |
| 20260905102412 | 76 | 144 | 0.0 | 2.0 | 0.00 | 0.00 | 0.00 | 81 | 1011.7 |
| 20260905101411 | 77 | 144 | 1.0 | 3.0 | 0.00 | 0.00 | 0.00 | 80 | 1011.7 |
| 20260905100911 | 77 | 144 | 1.0 | 3.0 | 0.00 | 0.00 | 0.00 | 79 | 1011.7 |
| 20260905100412 | 78 | 144 | 0.0 | 1.0 | 0.00 | 0.00 | 0.00 | 79 | 1011.8 |
| 20260905095412 | 78 | 144 | 0.0 | 1.0 | 0.00 | 0.00 | 0.00 | 78 | 1011.8 |
| 20260905094912 | 78 | 144 | 0.0 | 1.0 | 0.00 | 0.00 | 0.00 | 79 | 1011.8 |
| 20260905094412 | 77 | 144 | 0.0 | 0.0 | 0.00 | 0.00 | 0.00 | 81 | 1011.7 |
| 20260905093912 | 77 | 144 | 0.0 | 0.0 | 0.00 | 0.00 | 0.00 | 80 | 1011.7 |
| 20260905093411 | 77 | 144 | 0.0 | 0.0 | 0.00 | 0.00 | 0.00 | 80 | 1011.7 |
| 20260905092912 | 77 | 144 | 0.0 | 0.0 | 0.00 | 0.00 | 0.00 | 80 | 1011.6 |
| 20260905091912 | 78 | 144 | 0.0 | 0.0 | 0.00 | 0.00 | 0.00 | 78 | 1011.6 |
| 20260905091412 | 78 | 144 | 0.0 | 0.0 | 0.00 | 0.00 | 0.00 | 78 | 1011.6 |
| 20260905090912 | 78 | 144 | 0.0 | 0.0 | 0.00 | 0.00 | 0.00 | 78 | 1011.5 |
| 20260905090412 | 79 | 144 | 0.0 | 0.0 | 0.00 | 0.00 | 0.00 | 77 | 1011.4 |
| 20260905085912 | 79 | 144 | 0.0 | 0.0 | 0.00 | 0.00 | 0.00 | 77 | 1011.4 |
| 20260905085413 | 79 | 144 | 0.0 | 0.0 | 0.00 | 0.00 | 0.00 | 77 | 1011.2 |
| 20260905084913 | 79 | 144 | 0.0 | 0.0 | 0.00 | 0.00 | 0.00 | 77 | 1011.3 |
| 20260905084412 | 79 | 144 | 0.0 | 0.0 | 0.00 | 0.00 | 0.00 | 77 | 1011.1 |
| 20260905083912 | 79 | 144 | 0.0 | 0.0 | 0.00 | 0.00 | 0.00 | 77 | 1011.2 |
| 20260905083412 | 79 | 144 | 0.0 | 1.0 | 0.00 | 0.00 | 0.00 | 77 | 1011.1 |
| 20260905082912 | 80 | 131 | 0.0 | 2.0 | 0.00 | 0.00 | 0.00 | 76 | 1011.3 |
| 20260905082412 | 80 | 118 | 1.0 | 2.0 | 0.00 | 0.00 | 0.00 | 75 | 1011.2 |
| 20260905081912 | 80 | 117 | 1.0 | 2.0 | 0.00 | 0.00 | 0.00 | 75 | 1011.4 |
| 20260905081412 | 81 | 117 | 0.0 | 1.0 | 0.00 | 0.00 | 0.00 | 74 | 1011.3 |
| 20260905080913 | 81 | 117 | 0.0 | 1.0 | 0.00 | 0.00 | 0.00 | 74 | 1011.4 |
| 20260905080413 | 81 | 117 | 0.0 | 1.0 | 0.00 | 0.00 | 0.00 | 73 | 1011.4 |
| 20260905074913 | 82 | 132 | 0.0 | 2.0 | 0.00 | 0.00 | 0.00 | 73 | 1011.3 |
| 20260905074412 | 82 | 132 | 1.0 | 2.0 | 0.00 | 0.00 | 0.00 | 73 | 1011.4 |
| 20260905073912 | 82 | 132 | 0.0 | 2.0 | 0.00 | 0.00 | 0.00 | 72 | 1011.4 |
| 20260905073412 | 82 | 161 | 0.0 | 3.0 | 0.00 | 0.00 | 0.00 | 72 | 1011.4 |
| 20260905072912 | 82 | 161 | 2.0 | 3.0 | 0.00 | 0.00 | 0.00 | 72 | 1011.4 |
| 20260905072413 | 82 | 165 | 2.0 | 3.0 | 0.00 | 0.00 | 0.00 | 72 | 1011.5 |
| 20260905071913 | 82 | 165 | 2.0 | 3.0 | 0.00 | 0.00 | 0.00 | 71 | 1011.4 |
| 20260905071413 | 82 | 165 | 3.0 | 3.0 | 0.00 | 0.00 | 0.00 | 71 | 1011.4 |
| 20260905070913 | 83 | 165 | 2.0 | 3.0 | 0.00 | 0.00 | 0.00 | 71 | 1011.4 |
| 20260905070413 | 83 | 165 | 3.0 | 3.0 | 0.00 | 0.00 | 0.00 | 70 | 1011.6 |
| 20260905065413 | 83 | 205 | 2.0 | 3.0 | 0.00 | 0.00 | 0.00 | 70 | 1011.5 |
| 20260905064914 | 83 | 206 | 2.0 | 3.0 | 0.00 | 0.00 | 0.00 | 70 | 1011.4 |
| 20260905064412 | 83 | 206 | 3.0 | 3.0 | 0.00 | 0.00 | 0.00 | 70 | 1011.6 |
| 20260905063913 | 83 | 167 | 1.0 | 3.0 | 0.00 | 0.00 | 0.00 | 70 | 1011.5 |
| 20260905063413 | 83 | 167 | 3.0 | 3.0 | 0.00 | 0.00 | 0.00 | 70 | 1011.7 |
| 20260905062913 | 83 | 167 | 3.0 | 3.0 | 0.00 | 0.00 | 0.00 | 70 | 1011.6 |
| 20260905062413 | 83 | 167 | 3.0 | 5.0 | 0.00 | 0.00 | 0.00 | 69 | 1011.6 |
| 20260905061413 | 83 | 156 | 3.0 | 5.0 | 0.00 | 0.00 | 0.00 | 69 | 1011.7 |
| 20260905060913 | 84 | 156 | 2.0 | 3.0 | 0.00 | 0.00 | 0.00 | 68 | 1011.6 |
| 20260905060413 | 84 | 156 | 2.0 | 3.0 | 0.00 | 0.00 | 0.00 | 68 | 1011.7 |
| 20260905055913 | 84 | 149 | 2.0 | 3.0 | 0.00 | 0.00 | 0.00 | 68 | 1011.5 |
| 20260905055413 | 84 | 155 | 2.0 | 3.0 | 0.00 | 0.00 | 0.00 | 68 | 1011.7 |
| 20260905054914 | 84 | 153 | 2.0 | 3.0 | 0.00 | 0.00 | 0.00 | 68 | 1011.4 |
| 20260905054414 | 84 | 153 | 2.0 | 3.0 | 0.00 | 0.00 | 0.00 | 68 | 1011.5 |
| 20260905053414 | 85 | 153 | 2.0 | 3.0 | 0.00 | 0.00 | 0.00 | 67 | 1011.4 |
| 20260905052914 | 85 | 153 | 2.0 | 5.0 | 0.00 | 0.00 | 0.00 | 67 | 1011.3 |
| 20260905052413 | 85 | 154 | 3.0 | 6.0 | 0.00 | 0.00 | 0.00 | 66 | 1011.3 |
| 20260905051913 | 85 | 162 | 5.0 | 6.0 | 0.00 | 0.00 | 0.00 | 66 | 1011.2 |
| 20260905051413 | 85 | 162 | 4.0 | 5.0 | 0.00 | 0.00 | 0.00 | 66 | 1011.1 |
| 20260905050913 | 85 | 163 | 4.0 | 5.0 | 0.00 | 0.00 | 0.00 | 66 | 1011.1 |
| 20260905050413 | 86 | 167 | 4.0 | 5.0 | 0.00 | 0.00 | 0.00 | 65 | 1011.2 |
| 20260905045913 | 86 | 166 | 3.0 | 5.0 | 0.00 | 0.00 | 0.00 | 65 | 1011.2 |
| 20260905045413 | 86 | 164 | 3.0 | 6.0 | 0.00 | 0.00 | 0.00 | 65 | 1011.3 |
| 20260905044913 | 86 | 164 | 5.0 | 6.0 | 0.00 | 0.00 | 0.00 | 64 | 1011.2 |
| 20260905044413 | 86 | 168 | 5.0 | 6.0 | 0.00 | 0.00 | 0.00 | 63 | 1011.1 |
| 20260905043914 | 86 | 147 | 4.0 | 6.0 | 0.00 | 0.00 | 0.00 | 62 | 1011.1 |
| 20260905043416 | 87 | 152 | 3.0 | 6.0 | 0.00 | 0.00 | 0.00 | 61 | 1011.2 |
| 20260905042914 | 87 | 143 | 5.0 | 7.0 | 0.00 | 0.00 | 0.00 | 61 | 1011.1 |
| 20260905042413 | 87 | 145 | 3.0 | 7.0 | 0.00 | 0.00 | 0.00 | 61 | 1011.1 |
| 20260905041914 | 87 | 151 | 5.0 | 8.0 | 0.00 | 0.00 | 0.00 | 61 | 1011.1 |
| 20260905041414 | 87 | 141 | 5.0 | 8.0 | 0.00 | 0.00 | 0.00 | 60 | 1011.2 |
| 20260905040914 | 87 | 151 | 5.0 | 7.0 | 0.00 | 0.00 | 0.00 | 60 | 1011.3 |
| 20260905040414 | 87 | 148 | 4.0 | 6.0 | 0.00 | 0.00 | 0.00 | 60 | 1011.3 |
| 20260905035914 | 87 | 150 | 4.0 | 6.0 | 0.00 | 0.00 | 0.00 | 60 | 1011.3 |
| 20260905035414 | 87 | 143 | 3.0 | 5.0 | 0.00 | 0.00 | 0.00 | 59 | 1011.3 |
| 20260905034414 | 88 | 139 | 3.0 | 5.0 | 0.00 | 0.00 | 0.00 | 59 | 1011.1 |
| 20260905033914 | 88 | 144 | 3.0 | 5.0 | 0.00 | 0.00 | 0.00 | 58 | 1011.2 |
| 20260905033414 | 88 | 145 | 3.0 | 5.0 | 0.00 | 0.00 | 0.00 | 58 | 1011.1 |
| 20260905032914 | 88 | 148 | 3.0 | 5.0 | 0.00 | 0.00 | 0.00 | 57 | 1011.1 |
| 20260905032414 | 89 | 142 | 4.0 | 5.0 | 0.00 | 0.00 | 0.00 | 57 | 1011.0 |
| 20260905031914 | 89 | 140 | 3.0 | 6.0 | 0.00 | 0.00 | 0.00 | 56 | 1011.0 |
| 20260905030915 | 89 | 119 | 3.0 | 6.0 | 0.00 | 0.00 | 0.00 | 56 | 1011.0 |
| 20260905030414 | 89 | 127 | 3.0 | 6.0 | 0.00 | 0.00 | 0.00 | 56 | 1010.9 |
| 20260905025914 | 89 | 131 | 3.0 | 6.0 | 0.00 | 0.00 | 0.00 | 56 | 1011.0 |
| 20260905025414 | 90 | 123 | 3.0 | 6.0 | 0.00 | 0.00 | 0.00 | 55 | 1010.8 |
| 20260905024915 | 90 | 131 | 3.0 | 6.0 | 0.00 | 0.00 | 0.00 | 55 | 1010.9 |
| 20260905024414 | 90 | 125 | 3.0 | 6.0 | 0.00 | 0.00 | 0.00 | 54 | 1010.7 |
| 20260905023914 | 91 | 131 | 3.0 | 6.0 | 0.00 | 0.00 | 0.00 | 54 | 1010.7 |
| 20260905023414 | 91 | 127 | 3.0 | 6.0 | 0.00 | 0.00 | 0.00 | 53 | 1010.6 |
| 20260905022914 | 91 | 120 | 3.0 | 6.0 | 0.00 | 0.00 | 0.00 | 53 | 1010.5 |
| 20260905022414 | 91 | 122 | 3.0 | 7.0 | 0.00 | 0.00 | 0.00 | 53 | 1010.4 |
| 20260905021914 | 92 | 114 | 3.0 | 7.0 | 0.00 | 0.00 | 0.00 | 52 | 1010.4 |
| 20260905021415 | 92 | 113 | 3.0 | 7.0 | 0.00 | 0.00 | 0.00 | 52 | 1010.3 |
| 20260905020415 | 92 | 117 | 4.0 | 7.0 | 0.00 | 0.00 | 0.00 | 52 | 1010.1 |
| 20260905015415 | 93 | 108 | 3.0 | 7.0 | 0.00 | 0.00 | 0.00 | 51 | 1009.9 |
| 20260905014915 | 93 | 113 | 4.0 | 7.0 | 0.00 | 0.00 | 0.00 | 51 | 1009.9 |
| 20260905014415 | 93 | 113 | 3.0 | 8.0 | 0.00 | 0.00 | 0.00 | 50 | 1009.8 |
| 20260905013915 | 93 | 106 | 5.0 | 9.0 | 0.00 | 0.00 | 0.00 | 50 | 1009.8 |
| 20260905013415 | 93 | 102 | 5.0 | 9.0 | 0.00 | 0.00 | 0.00 | 50 | 1009.7 |
| 20260905012915 | 94 | 116 | 5.0 | 12.0 | 0.00 | 0.00 | 0.00 | 50 | 1009.7 |
| 20260905012415 | 93 | 107 | 5.0 | 12.0 | 0.00 | 0.00 | 0.00 | 50 | 1009.6 |
| 20260905011917 | 94 | 126 | 6.0 | 12.0 | 0.00 | 0.00 | 0.00 | 50 | 1009.7 |
| 20260905011415 | 94 | 127 | 5.0 | 10.0 | 0.00 | 0.00 | 0.00 | 50 | 1009.4 |
| 20260905010915 | 94 | 122 | 6.0 | 12.0 | 0.00 | 0.00 | 0.00 | 50 | 1009.5 |
| 20260905010415 | 94 | 113 | 5.0 | 12.0 | 0.00 | 0.00 | 0.00 | 50 | 1009.4 |
| 20260905005415 | 94 | 116 | 5.0 | 14.0 | 0.00 | 0.00 | 0.00 | 50 | 1009.4 |
| 20260905004915 | 94 | 124 | 7.0 | 14.0 | 0.00 | 0.00 | 0.00 | 50 | 1009.3 |
| 20260905004415 | 95 | 130 | 5.0 | 14.0 | 0.00 | 0.00 | 0.00 | 50 | 1009.3 |
| 20260905003915 | 95 | 115 | 5.0 | 15.0 | 0.00 | 0.00 | 0.00 | 49 | 1009.2 |
| 20260905003415 | 95 | 126 | 7.0 | 15.0 | 0.00 | 0.00 | 0.00 | 49 | 1009.1 |
| 20260905002916 | 95 | 139 | 7.0 | 15.0 | 0.00 | 0.00 | 0.00 | 49 | 1009.2 |
| 20260905002415 | 95 | 134 | 5.0 | 9.0 | 0.00 | 0.00 | 0.00 | 47 | 1009.1 |
| 20260905001916 | 95 | 131 | 5.0 | 9.0 | 0.00 | 0.00 | 0.00 | 47 | 1009.1 |
| 20260905001415 | 96 | 166 | 7.0 | 12.0 | 0.00 | 0.00 | 0.00 | 47 | 1009.0 |
| 20260905000915 | 96 | 159 | 7.0 | 12.0 | 0.00 | 0.00 | 0.00 | 47 | 1008.9 |
| 20260905000417 | 96 | 179 | 7.0 | 12.0 | 0.00 | 0.00 | 0.00 | 46 | 1009.0 |
| 20260904235916 | 96 | 180 | 7.0 | 12.0 | 0.00 | 0.00 | 0.00 | 45 | 1008.9 |
| 20260904235415 | 96 | 153 | 8.0 | 12.0 | 0.00 | 0.00 | 0.00 | 45 | 1009.0 |
| 20260904234915 | 97 | 151 | 5.0 | 14.0 | 0.00 | 0.00 | 0.00 | 46 | 1009.0 |
| 20260904234417 | 97 | 162 | 9.0 | 14.0 | 0.00 | 0.00 | 0.00 | 45 | 1009.0 |
| 20260904232915 | 97 | 122 | 8.0 | 15.0 | 0.00 | 0.00 | 0.00 | 45 | 1008.9 |
| 20260904232415 | 97 | 132 | 6.0 | 15.0 | 0.00 | 0.00 | 0.00 | 44 | 1008.9 |
| 20260904231916 | 97 | 161 | 7.0 | 13.0 | 0.00 | 0.00 | 0.00 | 45 | 1008.9 |
| 20260904231416 | 97 | 186 | 8.0 | 13.0 | 0.00 | 0.00 | 0.00 | 45 | 1009.0 |
| 20260904230915 | 97 | 168 | 9.0 | 15.0 | 0.00 | 0.00 | 0.00 | 44 | 1009.1 |
| 20260904230415 | 97 | 182 | 9.0 | 15.0 | 0.00 | 0.00 | 0.00 | 44 | 1009.1 |
| 20260904225915 | 97 | 158 | 10.0 | 16.0 | 0.00 | 0.00 | 0.00 | 44 | 1009.0 |
| 20260904224916 | 97 | 175 | 11.0 | 16.0 | 0.00 | 0.00 | 0.00 | 44 | 1009.2 |
| 20260904224415 | 97 | 164 | 10.0 | 16.0 | 0.00 | 0.00 | 0.00 | 44 | 1009.1 |
| 20260904223915 | 97 | 171 | 11.0 | 17.0 | 0.00 | 0.00 | 0.00 | 44 | 1009.2 |